Penn Yan, NY

9:17 PM EDT on June 18, 2018 (GMT -0400)
Penn Yan

Weather History for KPEO - June, 2018

Change the Weather History Date:

Thursday, June 14, 2018

  Actual Average (KITH) Record (KITH)
Temperature  
Mean Temperature 69 °F -  
Max Temperature 75 °F 74 °F 92 °F (1956)
Min Temperature 62 °F 52 °F 37 °F (1970)
Cooling Degree Days 4    
Growing Degree Days 19 (Base 50)    
Moisture  
Dew Point 45 °F    
Average Humidity 43    
Maximum Humidity 54    
Minimum Humidity 33    
Precipitation  
Precipitation 0.00 in - - ()
Sea Level Pressure  
Sea Level Pressure 29.86 in    
Wind  
Wind Speed 13 mph (West)    
Max Wind Speed 18 mph    
Max Gust Speed 41 mph    
Visibility 10 miles    
Events      
Averages and records for this station are not official NWS values.
T = Trace of Precipitation, MM = Missing Value Source: NWS Daily Summary

Daily Weather History Graph

Daily Weather History Graph

Search for Another Location

Airport or City:

Astronomy

Jun. 14, 2018 Rise Set
Actual Time 5:29 AM EDT 8:47 PM EDT
Civil Twilight 4:54 AM EDT 9:22 PM EDT
Nautical Twilight 4:09 AM EDT 10:07 PM EDT
Astronomical Twilight 3:14 AM EDT 11:03 PM EDT
Moon 6:26 AM EDT (6/14) 9:44 PM EDT (6/14)
Length of Visible Light 16h 27m
Length of Day
15h 17m
New Moon, 1% of the Moon is Illuminated
Jun 14
New Moon
Jun 20
First Quarter
Jun 28
Full
Jul 6
Last Quarter
Jul 12
New

Hourly Weather History & Observations

Time (EDT) Temp. Dew Point Humidity Pressure Visibility Wind Dir Wind Speed Gust Speed Precip Events Conditions
12:53 AM 66.0 °F 46.0 °F 48% 29.81 in 10.0 mi WSW 12.7 mph 21.9 mph N/A   Clear
1:53 AM 64.9 °F 46.0 °F 50% 29.83 in 10.0 mi WSW 12.7 mph 20.7 mph N/A   Clear
2:53 AM 63.0 °F 46.0 °F 54% 29.83 in 10.0 mi WSW 10.4 mph 20.7 mph N/A   Unknown
3:53 AM 63.0 °F 45.0 °F 52% 29.82 in 10.0 mi WSW 15.0 mph - N/A   Clear
4:53 AM 63.0 °F 45.0 °F 52% 29.81 in 10.0 mi WSW 10.4 mph - N/A   Clear
5:53 AM 63.0 °F 45.0 °F 52% 29.81 in 10.0 mi WSW 12.7 mph - N/A   Clear
6:53 AM 64.0 °F 46.0 °F 52% 29.82 in 10.0 mi WSW 12.7 mph - N/A   Clear
7:53 AM 66.9 °F 46.9 °F 49% 29.82 in 10.0 mi WSW 13.8 mph 24.2 mph N/A   Clear
8:53 AM 69.1 °F 46.0 °F 44% 29.83 in 10.0 mi West 13.8 mph 23.0 mph N/A   Clear
9:53 AM 71.1 °F 46.0 °F 41% 29.84 in 10.0 mi West 15.0 mph 34.5 mph N/A   Clear
10:53 AM 72.0 °F 46.0 °F 40% 29.84 in 10.0 mi WNW 18.4 mph 41.4 mph N/A   Clear
11:53 AM 73.9 °F 45.0 °F 35% 29.83 in 10.0 mi West 16.1 mph 33.4 mph N/A   Clear
12:53 PM 73.9 °F 46.0 °F 37% 29.83 in 10.0 mi WNW 17.3 mph 31.1 mph N/A   Clear
1:53 PM 75.0 °F 46.9 °F 37% 29.84 in 10.0 mi West 16.1 mph 25.3 mph N/A   Partly Cloudy
2:53 PM 73.9 °F 46.0 °F 37% 29.86 in 10.0 mi WNW 16.1 mph 35.7 mph N/A   Clear
3:53 PM 73.9 °F 45.0 °F 35% 29.87 in 10.0 mi WNW 16.1 mph 31.1 mph N/A   Clear
4:53 PM 73.9 °F 44.1 °F 34% 29.88 in 10.0 mi NW 18.4 mph 26.5 mph N/A   Partly Cloudy
5:53 PM 73.9 °F 44.1 °F 34% 29.89 in 10.0 mi NW 13.8 mph 25.3 mph N/A   Partly Cloudy
6:53 PM 73.0 °F 42.1 °F 33% 29.89 in 10.0 mi WNW 13.8 mph 24.2 mph N/A   Clear
7:53 PM 70.0 °F 39.9 °F 33% 29.91 in 10.0 mi NW 8.1 mph 18.4 mph N/A   Clear
8:53 PM 66.9 °F 42.1 °F 40% 29.92 in 10.0 mi WNW 6.9 mph - N/A   Clear
9:53 PM 66.0 °F 43.0 °F 43% 29.93 in 10.0 mi WNW 6.9 mph - N/A   Mostly Cloudy
10:53 PM 63.0 °F 44.1 °F 50% 29.95 in 10.0 mi WNW 3.5 mph - N/A   Scattered Clouds
11:53 PM 62.1 °F 45.0 °F 53% 29.96 in 10.0 mi Calm Calm - N/A   Mostly Cloudy